HONGYUN 1 (43871 NORAD) Tracking and Keplerian Element Data

This shows tracking and keplerian element data for the satellite.

Feedback or suggestion? Click here.




ElementValue
Catalog43871
NameHONGYUN 1
Epoch Orbit392
Epoch Day20.07840898
Epoch Year2019
RAAN29.4784
Inclination99.921
Eccentricity0.0010819
Argument of Perigee214.2203
Mean Anonmoly145.8236
Mean Motion13.506937
Decay Rate-4.5E-07
L11 43871U 18108A 19020.07840898 -.00000045 00000-0 00000+0 0 9996
L22 43871 99.9210 29.4784 0010819 214.2203 145.8236 13.50693700 3929

Live tracking and technical data element details for HONGYUN 1 (NORAD 43871). HONGYUN 1 can be tracked NOW for your location showing map with azimuth and elevation plus other details from your city location.

Track the satellite on the map from your city or location and see movement details for azimuth, elevation, latitude, longitude, range, height, and movement on the map or in text.







IsCatalogInMostPopularTable: catalog: 43871, numindb: 18
Update: records affected: 1



GetName: 43871 HONGYUN 1

Hit Count: updated at: Wed, 23 Jan 2019 02:41:51 GMT